Regional Weather Roundup
Issued by NWS

Home | Current Version | Previous Version | Graphics & Text | Print | Product List | Glossary On
Versions: 1 2 3 4 5 6 7 8 9 10 11 12 13 14 15 16 17 18 19 20 21 22 23 24 25 26 27 28
000
ASUS45 KBOI 262310
RWRID

IDAHO REGIONAL WEATHER ROUNDUP
NATIONAL WEATHER SERVICE BOISE ID
500 PM MDT FRI AUG 26 2016

NOTE: "FAIR" INDICATES FEW OR NO CLOUDS BELOW 12000 FEET
WITH NO SIGNIFICANT WEATHER AND/OR OBSTRUCTIONS TO VISIBILITY

IDZ012-014-270000-
SOUTHWEST IDAHO


CITY           SKY/WX    TMP DP  RH WIND       PRES   REMARKS
BOISE          SUNNY     85  33  15 N8G16     29.93F
CALDWELL       SUNNY     85  40  20 W8        29.92F
MOUNTAIN HOME  SUNNY     84  34  16 VRB6      29.92F
$$

IDZ016-017-270000-
SOUTHCENTRAL IDAHO


CITY           SKY/WX    TMP DP  RH WIND       PRES   REMARKS
BURLEY         PTSUNNY   73  42  32 W9G17     29.99S
JEROME         MOSUNNY   79  35  20 W14       30.00F
TWIN FALLS     MOSUNNY   79  32  18 NW9       30.01S
$$

IDZ019>023-270000-
SOUTHEAST IDAHO


CITY           SKY/WX    TMP DP  RH WIND       PRES   REMARKS
IDAHO FALLS    CLOUDY    77  29  17 SW12G18   30.00F
POCATELLO      PTSUNNY   76  28  17 W12       30.01S
REXBURG        SUNNY     76  30  18 SW12      30.00F
$$

IDZ006-010-011-018-031-032-270000-
CENTRAL IDAHO MOUNTAINS


CITY           SKY/WX    TMP DP  RH WIND       PRES   REMARKS
MCCALL         SUNNY     76  22  13 MISG      30.04F
HAILEY         MOSUNNY   75  37  25 W12       30.03F
STANLEY          N/A     72  27  18 MISG      30.10S
SALMON         CLOUDY    77  34  20 NW5       29.92F
CHALLIS        MOSUNNY   78  30  17 E6        29.97F
$$

IDZ002-004-006-007-026-270000-
NORTHERN IDAHO


CITY           SKY/WX    TMP DP  RH WIND       PRES   REMARKS
LEWISTON       SUNNY     91  35  13 N7        29.86F
LOWELL           N/A     90  36  14 CALM      29.87F
COEUR D`ALENE  SUNNY     82  36  18 W5        29.88F
MULLAN PASS    SUNNY     66  32  28 VRB6      30.10F
$$




USA.gov is the U.S. government's official web portal to all federal, state and local government web resources and services.